time, Switch, Flow(0), Analog(2)
yyyy/mm/dd HH:MM:SS.fff, True=FILTERED|False=TOTAL, L/min, V
2023/07/04 11:00:02.511, True, 4.715, 0.134203
2023/07/04 11:00:03.015, True, 4.306, 0.135500
2023/07/04 11:00:03.519, True, 4.649, 0.134279
2023/07/04 11:00:04.015, True, 4.038, 0.136263
2023/07/04 11:00:04.519, True, 2.653, 0.135195
2023/07/04 11:00:05.023, True, 1.327, 0.133898
2023/07/04 11:00:05.519, True, 1.347, 0.134890
2023/07/04 11:00:06.023, True, 0.995, 0.135424
2023/07/04 11:00:06.527, True, 0.996, 0.132906
2023/07/04 11:00:07.023, True, 1.011, 0.134203
2023/07/04 11:00:07.527, True, 1.325, 0.133898
2023/07/04 11:00:08.031, True, 0.995, 0.132296
2023/07/04 11:00:08.535, True, 0.995, 0.132677
2023/07/04 11:00:09.031, True, 1.011, 0.133288
2023/07/04 11:00:09.535, True, 0.995, 0.134203
2023/07/04 11:00:10.039, True, 0.995, 0.135119
2023/07/04 11:00:10.535, True, 1.012, 0.134432
2023/07/04 11:00:11.039, True, 0.994, 0.132525
2023/07/04 11:00:11.543, True, 1.327, 0.134051
2023/07/04 11:00:12.039, True, 1.011, 0.134508
2023/07/04 11:00:12.543, True, 0.996, 0.133669
2023/07/04 11:00:13.047, True, 0.994, 0.133974
2023/07/04 11:00:13.543, True, 1.011, 0.133516
2023/07/04 11:00:14.047, True, 0.994, 0.134051
2023/07/04 11:00:14.551, True, 0.995, 0.132143
2023/07/04 11:00:15.055, True, 1.326, 0.135119
2023/07/04 11:00:15.551, True, 1.011, 0.134508
2023/07/04 11:00:16.055, True, 0.995, 0.137713
2023/07/04 11:00:16.558, True, 0.995, 0.133898
2023/07/04 11:00:17.055, True, 1.350, 0.136187
2023/07/04 11:00:17.559, True, 0.993, 0.132677
2023/07/04 11:00:18.063, True, 0.995, 0.134508
2023/07/04 11:00:18.559, True, 1.011, 0.135042
2023/07/04 11:00:19.063, True, 0.995, 0.134279
2023/07/04 11:00:19.567, True, 1.326, 0.132982
2023/07/04 11:00:20.063, True, 1.011, 0.134279
2023/07/04 11:00:20.567, True, 0.995, 0.133669
2023/07/04 11:00:21.071, True, 0.995, 0.134051
2023/07/04 11:00:21.567, True, 1.013, 0.133593
2023/07/04 11:00:22.071, True, 1.324, 0.133669
2023/07/04 11:00:22.575, True, 0.995, 0.134051
2023/07/04 11:00:23.079, True, 0.995, 0.132372
2023/07/04 11:00:23.575, True, 1.011, 0.133516
2023/07/04 11:00:24.079, True, 0.995, 0.133669
2023/07/04 11:00:24.583, True, 0.995, 0.134585
2023/07/04 11:00:25.079, True, 1.348, 0.134508
2023/07/04 11:00:25.583, True, 0.995, 0.133288
2023/07/04 11:00:26.087, True, 0.996, 0.135805
2023/07/04 11:00:26.583, True, 1.010, 0.133440
2023/07/04 11:00:27.087, True, 0.995, 0.133898
2023/07/04 11:00:27.583, True, 1.011, 0.136263
2023/07/04 11:00:28.087, True, 1.327, 0.134585
2023/07/04 11:00:28.591, True, 0.994, 0.134661
2023/07/04 11:00:29.095, True, 0.995, 0.133669
2023/07/04 11:00:29.591, True, 1.011, 0.136416
2023/07/04 11:00:30.095, True, 0.995, 0.132677
2023/07/04 11:00:30.599, True, 1.327, 0.134813
2023/07/04 11:00:31.095, True, 1.010, 0.135271
2023/07/04 11:00:31.599, True, 0.995, 0.134127
2023/07/04 11:00:32.103, True, 0.995, 0.132296
2023/07/04 11:00:32.599, True, 1.011, 0.135958
2023/07/04 11:00:33.103, True, 0.995, 0.133516
2023/07/04 11:00:33.607, True, 0.995, 0.134203
2023/07/04 11:00:34.103, True, 1.348, 0.131380
2023/07/04 11:00:34.607, True, 0.995, 0.135500
2023/07/04 11:00:35.111, True, 0.996, 0.134966
2023/07/04 11:00:35.607, True, 1.009, 0.134279
2023/07/04 11:00:36.110, True, 0.995, 0.133974
2023/07/04 11:00:36.614, True, 1.326, 0.135729
2023/07/04 11:00:37.111, True, 1.011, 0.135653
2023/07/04 11:00:37.614, True, 0.995, 0.133288
2023/07/04 11:00:38.119, True, 0.995, 0.136950
2023/07/04 11:00:38.614, True, 1.012, 0.134203
2023/07/04 11:00:39.119, True, 0.995, 0.137636
2023/07/04 11:00:39.623, True, 0.994, 0.135042
2023/07/04 11:00:40.119, True, 1.011, 0.134585
2023/07/04 11:00:40.623, True, 1.326, 0.134585
2023/07/04 11:00:41.127, True, 0.995, 0.134432
2023/07/04 11:00:41.623, True, 1.011, 0.134203
2023/07/04 11:00:42.127, True, 0.995, 0.133288
2023/07/04 11:00:42.631, True, 0.996, 0.133745
2023/07/04 11:00:43.127, True, 1.010, 0.134737
2023/07/04 11:00:43.631, True, 0.995, 0.134966
2023/07/04 11:00:44.135, True, 0.995, 0.134508
2023/07/04 11:00:44.639, True, 1.326, 0.134737
2023/07/04 11:00:45.135, True, 1.010, 0.134890
2023/07/04 11:00:45.639, True, 0.997, 0.133593
2023/07/04 11:00:46.143, True, 0.994, 0.134890
2023/07/04 11:00:46.639, True, 1.011, 0.134279
2023/07/04 11:00:47.143, True, 0.994, 0.132372
2023/07/04 11:00:47.647, True, 0.996, 0.135348
2023/07/04 11:00:48.143, True, 1.011, 0.133669
2023/07/04 11:00:48.647, True, 0.994, 0.133669
2023/07/04 11:00:49.151, True, 0.996, 0.134051
2023/07/04 11:00:49.655, True, 0.994, 0.134508
2023/07/04 11:00:50.151, True, 1.010, 0.132982
2023/07/04 11:00:50.655, True, 1.327, 0.134279
2023/07/04 11:00:51.159, True, 0.995, 0.132296
2023/07/04 11:00:51.655, True, 1.011, 0.133974
2023/07/04 11:00:52.159, True, 0.995, 0.133135
2023/07/04 11:00:52.663, True, 0.995, 0.134661
2023/07/04 11:00:53.158, True, 1.012, 0.136339
2023/07/04 11:00:53.663, True, 0.994, 0.134585
2023/07/04 11:00:54.159, True, 1.012, 0.133288
2023/07/04 11:00:54.663, True, 0.993, 0.135958
2023/07/04 11:00:55.167, True, 1.327, 0.134890
2023/07/04 11:00:55.671, True, 0.994, 0.135042
2023/07/04 11:00:56.166, True, 1.011, 0.135653
2023/07/04 11:00:56.671, True, 0.995, 0.134432
2023/07/04 11:00:57.175, True, 0.995, 0.134813
2023/07/04 11:00:57.671, True, 1.011, 0.133516
2023/07/04 11:00:58.175, True, 0.995, 0.134737
2023/07/04 11:00:58.679, True, 1.326, 0.133440
2023/07/04 11:00:59.175, True, 1.011, 0.133974
2023/07/04 11:00:59.678, True, 0.995, 0.133516
2023/07/04 11:01:00.183, True, 0.995, 0.135500
2023/07/04 11:01:00.679, True, 1.011, 0.136034
2023/07/04 11:01:01.183, True, 0.995, 0.134890
2023/07/04 11:01:01.687, True, 1.326, 0.135348
2023/07/04 11:01:02.183, True, 1.011, 0.136416
2023/07/04 11:01:02.687, True, 0.995, 0.136950
2023/07/04 11:01:03.183, True, 1.011, 0.136873
2023/07/04 11:01:03.687, True, 0.995, 0.138170
2023/07/04 11:01:04.191, True, 0.995, 0.135958
2023/07/04 11:01:04.687, True, 1.011, 0.138323
2023/07/04 11:01:05.191, True, 0.995, 0.135882
2023/07/04 11:01:05.695, True, 0.995, 0.137331
2023/07/04 11:01:06.191, True, 1.011, 0.133745
2023/07/04 11:01:06.695, True, 1.327, 0.136797
2023/07/04 11:01:07.199, True, 0.995, 0.136950
2023/07/04 11:01:07.695, True, 1.011, 0.135653
2023/07/04 11:01:08.199, True, 0.995, 0.137636
2023/07/04 11:01:08.703, True, 1.327, 0.137484
2023/07/04 11:01:09.199, True, 1.011, 0.136187
2023/07/04 11:01:09.703, True, 0.995, 0.139544
2023/07/04 11:01:10.207, True, 0.995, 0.137179
2023/07/04 11:01:10.703, True, 1.011, 0.136416
2023/07/04 11:01:11.207, True, 0.995, 0.138018
2023/07/04 11:01:11.711, True, 0.995, 0.139620
2023/07/04 11:01:12.215, True, 0.995, 0.138552
2023/07/04 11:01:12.711, True, 1.011, 0.139467
2023/07/04 11:01:13.215, True, 1.326, 0.138399
2023/07/04 11:01:13.711, True, 1.011, 0.136110
2023/07/04 11:01:14.215, True, 0.995, 0.136797
2023/07/04 11:01:14.719, True, 1.327, 0.138857
2023/07/04 11:01:15.215, True, 1.011, 0.138781
2023/07/04 11:01:15.719, True, 0.995, 0.138170
2023/07/04 11:01:16.223, True, 0.995, 0.138018
2023/07/04 11:01:16.719, True, 1.011, 0.139467
2023/07/04 11:01:17.223, True, 1.327, 0.137179
2023/07/04 11:01:17.719, True, 1.011, 0.137713
2023/07/04 11:01:18.223, True, 0.995, 0.137484
2023/07/04 11:01:18.727, True, 0.995, 0.137865
2023/07/04 11:01:19.223, True, 1.011, 0.136950
2023/07/04 11:01:19.727, True, 1.326, 0.139315
2023/07/04 11:01:20.231, True, 0.995, 0.138933
2023/07/04 11:01:20.727, True, 1.011, 0.136873
2023/07/04 11:01:21.231, True, 0.997, 0.138705
2023/07/04 11:01:21.735, True, 0.993, 0.138094
2023/07/04 11:01:22.239, True, 0.663, 0.135576
2023/07/04 11:01:22.735, True, 1.011, 0.140993
2023/07/04 11:01:23.239, True, 1.327, 0.140612
2023/07/04 11:01:23.743, True, 0.995, 0.138170
2023/07/04 11:01:24.239, True, 1.011, 0.136416
2023/07/04 11:01:24.743, True, 0.995, 0.139391
2023/07/04 11:01:25.239, True, 1.011, 0.139162
2023/07/04 11:01:25.743, True, 0.996, 0.140307
2023/07/04 11:01:26.247, True, 0.993, 0.138170
2023/07/04 11:01:26.743, True, 1.011, 0.136339
2023/07/04 11:01:27.247, True, 0.995, 0.137789
2023/07/04 11:01:27.751, True, 0.995, 0.138933
2023/07/04 11:01:28.255, True, 0.995, 0.139391
2023/07/04 11:01:28.751, True, 1.011, 0.140230
2023/07/04 11:01:29.255, True, 0.995, 0.137255
2023/07/04 11:01:29.759, True, 1.327, 0.139849
2023/07/04 11:01:30.255, True, 1.011, 0.138399
2023/07/04 11:01:30.758, True, 0.996, 0.138781
2023/07/04 11:01:31.263, True, 0.994, 0.138170
2023/07/04 11:01:31.759, True, 1.011, 0.136873
2023/07/04 11:01:32.263, True, 0.994, 0.139391
2023/07/04 11:01:32.767, True, 0.995, 0.138170
2023/07/04 11:01:33.263, True, 1.011, 0.136034
2023/07/04 11:01:33.767, True, 1.325, 0.138781
2023/07/04 11:01:34.271, True, 0.996, 0.139239
2023/07/04 11:01:34.775, True, 0.994, 0.136568
2023/07/04 11:01:35.271, True, 1.011, 0.137942
2023/07/04 11:01:35.775, True, 1.328, 0.137942
2023/07/04 11:01:36.271, True, 1.011, 0.139925
2023/07/04 11:01:36.775, True, 0.994, 0.140764
2023/07/04 11:01:37.279, True, 0.995, 0.139315
2023/07/04 11:01:37.775, True, 1.012, 0.138857
2023/07/04 11:01:38.278, True, 0.994, 0.139010
2023/07/04 11:01:38.783, True, 0.996, 0.140078
2023/07/04 11:01:39.279, True, 1.347, 0.139925
2023/07/04 11:01:39.783, True, 0.994, 0.141070
2023/07/04 11:01:40.287, True, 0.997, 0.139925
2023/07/04 11:01:40.783, True, 1.009, 0.141451
2023/07/04 11:01:41.287, True, 1.326, 0.139239
2023/07/04 11:01:41.791, True, 0.995, 0.139620
2023/07/04 11:01:42.287, True, 1.011, 0.140002
2023/07/04 11:01:42.791, True, 0.995, 0.137942
2023/07/04 11:01:43.295, True, 0.995, 0.140688
2023/07/04 11:01:43.791, True, 1.011, 0.138552
2023/07/04 11:01:44.295, True, 0.995, 0.139162
2023/07/04 11:01:44.799, True, 0.995, 0.140154
2023/07/04 11:01:45.295, True, 1.011, 0.141146
2023/07/04 11:01:45.799, True, 0.995, 0.140993
2023/07/04 11:01:46.303, True, 1.326, 0.141070
2023/07/04 11:01:46.799, True, 1.011, 0.139239
2023/07/04 11:01:47.303, True, 0.995, 0.140993
2023/07/04 11:01:47.807, True, 0.995, 0.141451
2023/07/04 11:01:48.303, True, 1.011, 0.138399
2023/07/04 11:01:48.807, True, 0.995, 0.139162
2023/07/04 11:01:49.311, True, 0.995, 0.136568
2023/07/04 11:01:49.807, True, 1.011, 0.139467
2023/07/04 11:01:50.311, True, 0.995, 0.140612
2023/07/04 11:01:50.815, True, 0.995, 0.138552
2023/07/04 11:01:51.311, True, 1.348, 0.140536
2023/07/04 11:01:51.815, True, 0.996, 0.137179
2023/07/04 11:01:52.319, True, 0.994, 0.139620
2023/07/04 11:01:52.815, True, 1.010, 0.140154
2023/07/04 11:01:53.319, True, 0.995, 0.140459
2023/07/04 11:01:53.823, True, 0.995, 0.142214
2023/07/04 11:01:54.319, True, 1.348, 0.140536
2023/07/04 11:01:54.823, True, 0.995, 0.138247
2023/07/04 11:01:55.327, True, 0.995, 0.137942
2023/07/04 11:01:55.823, True, 1.011, 0.139162
2023/07/04 11:01:56.327, True, 0.995, 0.139544
2023/07/04 11:01:56.831, True, 0.995, 0.137789
2023/07/04 11:01:57.327, True, 1.011, 0.140612
2023/07/04 11:01:57.831, True, 1.326, 0.138933
2023/07/04 11:01:58.335, True, 0.995, 0.141833
2023/07/04 11:01:58.831, True, 1.011, 0.138781
2023/07/04 11:01:59.335, True, 0.995, 0.141222
2023/07/04 11:01:59.839, True, 0.995, 0.142443
2023/07/04 11:02:00.335, True, 1.348, 0.139162
2023/07/04 11:02:00.838, True, 0.995, 0.140841
2023/07/04 11:02:01.342, True, 0.995, 0.139239
2023/07/04 11:02:01.839, True, 1.011, 0.138705
2023/07/04 11:02:02.342, True, 0.995, 0.138170
2023/07/04 11:02:02.847, True, 0.995, 0.138933
2023/07/04 11:02:03.343, True, 1.011, 0.141146
2023/07/04 11:02:03.847, True, 1.327, 0.140383
2023/07/04 11:02:04.350, True, 0.995, 0.139467
2023/07/04 11:02:04.847, True, 1.011, 0.139696
2023/07/04 11:02:05.351, True, 0.995, 0.138247
2023/07/04 11:02:05.855, True, 0.995, 0.138170
2023/07/04 11:02:06.351, True, 1.011, 0.140459
2023/07/04 11:02:06.855, True, 0.995, 0.140917
2023/07/04 11:02:07.359, True, 1.326, 0.140002
2023/07/04 11:02:07.863, True, 0.996, 0.138476
2023/07/04 11:02:08.359, True, 1.010, 0.137789
2023/07/04 11:02:08.863, True, 0.995, 0.138628
2023/07/04 11:02:09.359, True, 1.011, 0.140230
2023/07/04 11:02:09.863, True, 0.995, 0.137789
2023/07/04 11:02:10.366, True, 0.995, 0.139086
2023/07/04 11:02:10.863, True, 1.348, 0.140764
2023/07/04 11:02:11.367, True, 0.996, 0.139849
2023/07/04 11:02:11.871, True, 0.995, 0.140841
2023/07/04 11:02:12.367, True, 1.010, 0.140536
2023/07/04 11:02:12.871, True, 1.326, 0.138933
2023/07/04 11:02:13.375, True, 0.997, 0.138857
2023/07/04 11:02:13.871, True, 1.010, 0.139544
2023/07/04 11:02:14.375, True, 0.993, 0.139773
2023/07/04 11:02:14.879, True, 1.328, 0.138933
2023/07/04 11:02:15.375, True, 1.010, 0.139315
2023/07/04 11:02:15.879, True, 0.996, 0.139544
2023/07/04 11:02:16.383, True, 0.995, 0.140688
2023/07/04 11:02:16.887, True, 0.995, 0.138476
2023/07/04 11:02:17.383, True, 1.010, 0.140764
2023/07/04 11:02:17.887, True, 0.994, 0.140459
2023/07/04 11:02:18.391, True, 0.995, 0.141680
2023/07/04 11:02:18.886, True, 1.013, 0.138857
2023/07/04 11:02:19.391, True, 1.324, 0.137407
2023/07/04 11:02:19.887, True, 1.011, 0.139773
2023/07/04 11:02:20.391, True, 0.997, 0.138933
2023/07/04 11:02:20.895, True, 0.994, 0.140536
2023/07/04 11:02:21.399, True, 0.993, 0.139162
2023/07/04 11:02:21.895, True, 1.011, 0.139467
2023/07/04 11:02:22.399, True, 0.995, 0.140154
2023/07/04 11:02:22.903, True, 0.995, 0.140002
2023/07/04 11:02:23.399, True, 1.012, 0.140612
2023/07/04 11:02:23.903, True, 1.325, 0.139010
2023/07/04 11:02:24.407, True, 0.996, 0.141070
2023/07/04 11:02:24.903, True, 1.009, 0.140307
2023/07/04 11:02:25.407, True, 0.997, 0.137942
2023/07/04 11:02:25.911, True, 0.993, 0.139467
2023/07/04 11:02:26.407, True, 1.011, 0.140459
2023/07/04 11:02:26.911, True, 0.997, 0.141527
2023/07/04 11:02:27.415, True, 0.993, 0.138094
2023/07/04 11:02:27.911, True, 1.011, 0.139849
2023/07/04 11:02:28.415, True, 0.995, 0.138628
2023/07/04 11:02:28.919, True, 1.328, 0.136797
2023/07/04 11:02:29.415, True, 1.010, 0.139086
2023/07/04 11:02:29.919, True, 0.995, 0.140841
2023/07/04 11:02:30.423, True, 0.995, 0.138781
2023/07/04 11:02:30.919, True, 1.011, 0.137713
2023/07/04 11:02:31.423, True, 1.327, 0.140230
2023/07/04 11:02:31.927, True, 0.994, 0.137636
2023/07/04 11:02:32.423, True, 1.011, 0.139162
2023/07/04 11:02:32.927, True, 0.995, 0.139620
2023/07/04 11:02:33.431, True, 0.995, 0.140536
2023/07/04 11:02:33.927, True, 1.011, 0.140917
2023/07/04 11:02:34.431, True, 0.995, 0.139544
2023/07/04 11:02:34.935, True, 0.995, 0.138476
2023/07/04 11:02:35.431, True, 1.011, 0.139467
2023/07/04 11:02:35.935, True, 0.995, 0.138628
2023/07/04 11:02:36.439, True, 1.326, 0.140993
2023/07/04 11:02:36.935, True, 1.012, 0.139315
2023/07/04 11:02:37.439, True, 0.994, 0.137102
2023/07/04 11:02:37.943, True, 0.995, 0.138781
2023/07/04 11:02:38.439, True, 0.674, 0.139849
2023/07/04 11:02:38.943, True, 1.326, 0.139925
2023/07/04 11:02:39.439, True, 1.011, 0.140383
2023/07/04 11:02:39.943, True, 0.995, 0.138247
2023/07/04 11:02:40.447, True, 0.995, 0.136187
2023/07/04 11:02:40.951, True, 0.995, 0.136416
2023/07/04 11:02:41.447, True, 1.011, 0.140536
2023/07/04 11:02:41.951, True, 1.326, 0.140459
2023/07/04 11:02:42.447, True, 1.011, 0.137636
2023/07/04 11:02:42.951, True, 0.996, 0.136950
2023/07/04 11:02:43.455, True, 0.994, 0.137789
2023/07/04 11:02:43.959, True, 0.995, 0.140688
2023/07/04 11:02:44.455, True, 1.011, 0.139620
2023/07/04 11:02:44.959, True, 0.995, 0.138323
2023/07/04 11:02:45.463, True, 1.327, 0.140459
2023/07/04 11:02:45.959, True, 1.010, 0.140078
2023/07/04 11:02:46.463, True, 0.995, 0.139391
2023/07/04 11:02:46.967, True, 0.995, 0.137789
2023/07/04 11:02:47.471, True, 0.995, 0.139010
2023/07/04 11:02:47.967, True, 1.011, 0.138323
2023/07/04 11:02:48.471, True, 1.326, 0.138933
2023/07/04 11:02:48.967, True, 1.011, 0.139086
2023/07/04 11:02:49.471, True, 0.995, 0.136721
2023/07/04 11:02:49.975, True, 0.995, 0.138170
2023/07/04 11:02:50.480, True, 0.995, 0.137942
2023/07/04 11:02:50.975, True, 1.348, 0.139849
2023/07/04 11:02:51.479, True, 0.996, 0.138552
2023/07/04 11:02:51.975, True, 1.010, 0.138705
2023/07/04 11:02:52.479, True, 0.995, 0.141756
2023/07/04 11:02:52.983, True, 0.995, 0.139544
2023/07/04 11:02:53.479, True, 1.011, 0.140078
2023/07/04 11:02:53.983, True, 0.995, 0.137942
2023/07/04 11:02:54.487, True, 0.995, 0.138476
2023/07/04 11:02:54.983, True, 1.011, 0.139239
2023/07/04 11:02:55.487, True, 0.996, 0.140154
2023/07/04 11:02:55.991, True, 1.325, 0.140764
2023/07/04 11:02:56.487, True, 1.011, 0.138399
2023/07/04 11:02:56.991, True, 0.663, 0.138094
2023/07/04 11:02:57.487, True, 1.011, 0.139467
2023/07/04 11:02:57.991, True, 1.327, 0.140612
2023/07/04 11:02:58.495, True, 0.995, 0.139849
2023/07/04 11:02:58.991, True, 1.012, 0.137331
2023/07/04 11:02:59.495, True, 0.994, 0.139086
2023/07/04 11:02:59.999, True, 0.995, 0.139620
2023/07/04 11:03:00.503, True, 1.326, 0.138247
2023/07/04 11:03:00.999, True, 1.011, 0.139544
2023/07/04 11:03:01.503, True, 0.994, 0.138247
2023/07/04 11:03:01.999, True, 1.011, 0.138781
2023/07/04 11:03:02.503, True, 0.995, 0.137179
2023/07/04 11:03:03.007, True, 0.995, 0.140688
2023/07/04 11:03:03.503, True, 1.011, 0.138399
2023/07/04 11:03:04.007, True, 0.995, 0.138170
2023/07/04 11:03:04.511, True, 0.995, 0.139773
2023/07/04 11:03:05.007, True, 1.011, 0.138476
2023/07/04 11:03:05.511, True, 0.995, 0.139315
2023/07/04 11:03:06.015, True, 0.995, 0.139544
2023/07/04 11:03:06.510, True, 1.011, 0.137942
2023/07/04 11:03:07.015, True, 1.327, 0.137636
2023/07/04 11:03:07.519, True, 0.996, 0.139773
2023/07/04 11:03:08.023, True, 0.993, 0.138933
2023/07/04 11:03:08.519, True, 1.011, 0.139773
2023/07/04 11:03:09.023, True, 0.995, 0.137102
2023/07/04 11:03:09.527, True, 0.995, 0.138476
2023/07/04 11:03:10.023, True, 1.011, 0.138857
2023/07/04 11:03:10.527, True, 0.995, 0.140612
2023/07/04 11:03:11.023, True, 1.011, 0.139391
2023/07/04 11:03:11.527, True, 0.994, 0.137102
2023/07/04 11:03:12.031, True, 0.996, 0.139849
2023/07/04 11:03:12.527, True, 1.009, 0.141527
2023/07/04 11:03:13.031, True, 0.995, 0.139162
2023/07/04 11:03:13.535, True, 0.995, 0.138247
2023/07/04 11:03:14.039, True, 1.326, 0.138857
2023/07/04 11:03:14.535, True, 0.674, 0.138323
2023/07/04 11:03:15.039, True, 0.995, 0.139239
2023/07/04 11:03:15.543, True, 1.326, 0.140078
2023/07/04 11:03:16.039, True, 1.012, 0.138476
2023/07/04 11:03:16.543, True, 0.995, 0.138781
2023/07/04 11:03:17.047, True, 0.994, 0.139849
2023/07/04 11:03:17.543, True, 1.011, 0.139696
2023/07/04 11:03:18.047, True, 0.995, 0.140154
2023/07/04 11:03:18.551, True, 0.995, 0.137407
2023/07/04 11:03:19.047, True, 1.011, 0.138781
2023/07/04 11:03:19.551, True, 0.995, 0.138552
2023/07/04 11:03:20.055, True, 0.995, 0.140612
2023/07/04 11:03:20.551, True, 1.010, 0.137942
2023/07/04 11:03:21.055, True, 0.996, 0.139086
2023/07/04 11:03:21.559, True, 0.993, 0.138247
2023/07/04 11:03:22.055, True, 1.011, 0.138781
2023/07/04 11:03:22.559, True, 0.995, 0.137407
2023/07/04 11:03:23.063, True, 0.995, 0.140383
2023/07/04 11:03:23.567, True, 0.995, 0.140536
2023/07/04 11:03:24.063, True, 1.011, 0.139239
2023/07/04 11:03:24.567, True, 0.995, 0.137179
2023/07/04 11:03:25.071, True, 0.995, 0.140307
2023/07/04 11:03:25.567, True, 1.012, 0.139620
2023/07/04 11:03:26.071, True, 0.993, 0.139315
2023/07/04 11:03:26.575, True, 1.326, 0.136950
2023/07/04 11:03:27.071, True, 1.011, 0.137636
2023/07/04 11:03:27.575, True, 0.995, 0.140230
2023/07/04 11:03:28.079, True, 0.995, 0.138628
2023/07/04 11:03:28.575, True, 0.674, 0.140230
2023/07/04 11:03:29.079, True, 1.326, 0.138399
2023/07/04 11:03:29.583, True, 0.995, 0.140688
2023/07/04 11:03:30.079, True, 1.011, 0.135576
2023/07/04 11:03:30.583, True, 0.994, 0.139849
2023/07/04 11:03:31.087, True, 0.995, 0.140612
2023/07/04 11:03:31.583, True, 1.011, 0.138476
2023/07/04 11:03:32.087, True, 0.995, 0.140612
2023/07/04 11:03:32.591, True, 0.995, 0.138705
2023/07/04 11:03:33.087, True, 1.011, 0.140383
2023/07/04 11:03:33.591, True, 1.327, 0.136645
2023/07/04 11:03:34.095, True, 0.994, 0.138399
2023/07/04 11:03:34.591, True, 1.011, 0.137102
2023/07/04 11:03:35.095, True, 0.995, 0.140307
2023/07/04 11:03:35.599, True, 0.995, 0.140307
2023/07/04 11:03:36.095, True, 1.011, 0.138323
2023/07/04 11:03:36.599, True, 0.995, 0.138705
2023/07/04 11:03:37.103, True, 0.995, 0.138476
2023/07/04 11:03:37.599, True, 1.010, 0.138094
2023/07/04 11:03:38.103, True, 0.995, 0.137331
2023/07/04 11:03:38.607, True, 0.995, 0.138323
2023/07/04 11:03:39.103, True, 1.011, 0.137865
2023/07/04 11:03:39.607, True, 0.994, 0.138781
2023/07/04 11:03:40.103, True, 1.348, 0.139391
2023/07/04 11:03:40.607, True, 0.994, 0.138399
2023/07/04 11:03:41.111, True, 0.995, 0.140383
2023/07/04 11:03:41.607, True, 1.011, 0.137255
2023/07/04 11:03:42.111, True, 0.995, 0.139925
2023/07/04 11:03:42.615, True, 0.995, 0.139239
2023/07/04 11:03:43.111, True, 1.011, 0.138476
2023/07/04 11:03:43.615, True, 0.995, 0.138323
2023/07/04 11:03:44.119, True, 0.995, 0.137942
2023/07/04 11:03:44.615, True, 1.011, 0.136950
2023/07/04 11:03:45.119, True, 0.995, 0.138247
2023/07/04 11:03:45.623, True, 0.995, 0.138705
2023/07/04 11:03:46.119, True, 1.011, 0.138857
2023/07/04 11:03:46.623, True, 0.995, 0.138094
2023/07/04 11:03:47.127, True, 0.995, 0.138399
2023/07/04 11:03:47.623, True, 1.011, 0.138705
2023/07/04 11:03:48.127, True, 0.996, 0.139086
2023/07/04 11:03:48.631, True, 0.993, 0.140307
2023/07/04 11:03:49.135, True, 0.995, 0.137484
2023/07/04 11:03:49.631, True, 1.012, 0.141299
2023/07/04 11:03:50.135, True, 0.995, 0.136645
2023/07/04 11:03:50.639, True, 0.994, 0.138857
2023/07/04 11:03:51.135, True, 1.011, 0.136187
2023/07/04 11:03:51.639, True, 0.996, 0.136873
2023/07/04 11:03:52.143, True, 0.994, 0.138018
2023/07/04 11:03:52.639, True, 1.011, 0.137026
2023/07/04 11:03:53.143, True, 0.995, 0.139696
2023/07/04 11:03:53.647, True, 0.995, 0.137255
2023/07/04 11:03:54.143, True, 1.011, 0.138247
2023/07/04 11:03:54.647, True, 0.995, 0.138323
2023/07/04 11:03:55.151, True, 0.995, 0.138476
2023/07/04 11:03:55.647, True, 1.012, 0.136339
2023/07/04 11:03:56.151, True, 0.994, 0.138628
2023/07/04 11:03:56.655, True, 1.326, 0.137636
2023/07/04 11:03:57.151, True, 1.011, 0.136797
2023/07/04 11:03:57.655, True, 0.995, 0.137560
2023/07/04 11:03:58.159, True, 0.995, 0.138094
2023/07/04 11:03:58.656, True, 1.011, 0.140154
2023/07/04 11:03:59.159, True, 0.995, 0.137560
2023/07/04 11:03:59.663, True, 0.997, 0.138323
2023/07/04 11:04:00.167, True, 0.994, 0.138628
2023/07/04 11:04:00.663, True, 1.347, 0.139086
2023/07/04 11:04:01.167, True, 0.995, 0.137942
2023/07/04 11:04:01.663, True, 1.011, 0.139315
2023/07/04 11:04:02.167, True, 0.995, 0.137713
2023/07/04 11:04:02.671, True, 0.995, 0.138476
2023/07/04 11:04:03.167, True, 1.011, 0.137789
2023/07/04 11:04:03.671, True, 0.995, 0.136416
2023/07/04 11:04:04.175, True, 0.995, 0.138323
2023/07/04 11:04:04.671, True, 1.011, 0.136797
2023/07/04 11:04:05.175, True, 0.995, 0.138323
2023/07/04 11:04:05.679, True, 0.995, 0.137179
2023/07/04 11:04:06.175, True, 1.011, 0.138857
2023/07/04 11:04:06.679, True, 0.994, 0.139467
2023/07/04 11:04:07.183, True, 0.995, 0.137026
2023/07/04 11:04:07.679, True, 1.011, 0.137026
2023/07/04 11:04:08.183, True, 0.995, 0.139391
2023/07/04 11:04:08.679, True, 1.012, 0.138476
2023/07/04 11:04:09.183, True, 0.995, 0.138933
2023/07/04 11:04:09.687, True, 0.993, 0.139315
2023/07/04 11:04:10.183, True, 1.011, 0.139162
2023/07/04 11:04:10.687, True, 0.996, 0.139773
2023/07/04 11:04:11.191, True, 0.993, 0.139773
2023/07/04 11:04:11.687, True, 1.011, 0.137713